COSMOS 2251 DEB, 35602

Orbit data source: Space-Track

COSMOS 2251 DEB, 35602 is space debris in LEO originally from a launch on Wed, 16 Jun 1993 UTC launched from the Plesetsk Missile And Space Complex (PKMTR). The debris from Iridium 33, an American commercial communications satellite, has been tracked extensively since its accidental collision with the defunct Russian satellite Cosmos 2251 in 2009. This event, occurring at high speed in low Earth orbit (LEO), generated thousands of pieces of space debris, significantly increasing the risk of further collisions. The Iridium 33 debris cloud has impacted space traffic management and orbital debris mitigation strategies, making it a subject of ongoing study in space situational awareness.

Loading next visibility...
Identifier
35602, 1993-036AMV
Orbit
LEO
Country
Flag of CISCIS
Related business
Manufacturer
Unknown
Mission
Spacecraft
Bus & Motor
Unknown
Mass
Unknown
Launch date (UTC)
1993-06-16 (33 years ago)
Launch vehicle
Unknown
Launch site
Plesetsk Missile And Space Complex (PKMTR)
Object type
Payload
Rocket body
Debris
Shape & HBR
Unknown shape, 0.1 m
Radar Cross Section
Medium (>0.1 m² and <1 m²)

Expand to show TLE details & history
Last TLE update: 22 hours ago

TLE from 22 hours ago
0 COSMOS 2251 DEB
1 35602U 93036AMV 26206.57215772  .00022695  00000-0  44020-3 0  9996
2 35602  73.9918  54.7199 0069229  60.5427 331.1905 15.44923568935536
Epoch: 2026-07-25T13:43Z
TLE epoch observation values (Epoch: 2026-07-25T13:43:54.427Z)
Latitude
30.06613°
Longitude
-85.0332°
Altitude
393.905 km
Speed
7.7 km/s
True Right ascension
04h 16m 54s
True Declination
29° 54' 33"
Sunlit
Object was in daylight at epoch
Visualization orbit readout
Latitude
Unknown
Longitude
Unknown
Altitude
Unknown
Speed
Unknown
Apparent Right ascension
Unknown
Apparent Declination
Unknown
Sunlit
N/A
Visualization observer readout
Local Sidereal Time
01:14:17
Azimuth
Unknown
Elevation
Unknown
Doppler factor
Unknown
Orbital elements
Apogee altitude
476.237 km
Perigee altitude
381.986 km
Semi-major axis
6,807.248 km
Eccentricity
0.00692
Inclination
73.9918°
RAAN
54.7199°
Arg. of periapsis
60.5427°
True anomaly
330.80529°
Mean anomaly
331.1905°
Eccentric anomaly
330.99819°
Mean motion
3.86443 °/min
Orbital period
93.16 mins
BSTAR
0.0004402

Documentation

Showing up to 5 results
|